| time (UTC) | temp F | wind direction | speed MPH | gust MPH | rain 1hr in | rain 24hr in | rain mn in | humidity % | barometer mb |
| 20260509150005 | 55 | 288 | 5.0 | 8.0 | 0.00 | 0.00 | 0.00 | 92 | 1028.0 |
| 20260509144504 | 55 | 281 | 2.0 | 9.0 | 0.00 | 0.00 | 0.00 | 91 | 1028.0 |
| 20260509143004 | 55 | 285 | 4.0 | 10.0 | 0.00 | 0.00 | 0.00 | 91 | 1027.9 |
| 20260509141502 | 55 | 290 | 5.0 | 8.0 | 0.00 | 0.00 | 0.00 | 91 | 1028.0 |
| 20260509140117 | 55 | 309 | 5.0 | 9.0 | 0.00 | 0.00 | 0.00 | 91 | 1028.0 |
| 20260509134559 | 55 | 314 | 3.0 | 7.0 | 0.00 | 0.00 | 0.00 | 91 | 1027.9 |
| 20260509133104 | 55 | 307 | 3.0 | 6.0 | 0.00 | 0.00 | 0.00 | 91 | 1027.8 |
| 20260509131556 | 55 | 271 | 4.0 | 7.0 | 0.00 | 0.00 | 0.00 | 91 | 1027.8 |
| 20260509130058 | 55 | 305 | 2.0 | 6.0 | 0.00 | 0.00 | 0.00 | 91 | 1027.8 |
| 20260509124605 | 55 | 292 | 3.0 | 7.0 | 0.00 | 0.00 | 0.00 | 91 | 1027.8 |
| 20260509123055 | 55 | 300 | 2.0 | 6.0 | 0.00 | 0.00 | 0.00 | 91 | 1027.8 |
| 20260509121554 | 55 | 279 | 2.0 | 5.0 | 0.00 | 0.00 | 0.00 | 90 | 1027.8 |
| 20260509120051 | 55 | 282 | 2.0 | 5.0 | 0.00 | 0.00 | 0.00 | 90 | 1027.7 |
| 20260509114556 | 55 | 274 | 2.0 | 4.0 | 0.00 | 0.00 | 0.00 | 90 | 1027.6 |
| 20260509113050 | 55 | 284 | 2.0 | 5.0 | 0.00 | 0.00 | 0.00 | 90 | 1027.5 |
| 20260509111547 | 55 | 304 | 2.0 | 5.0 | 0.00 | 0.00 | 0.00 | 90 | 1027.3 |
| 20260509110048 | 55 | 340 | 3.0 | 7.0 | 0.00 | 0.00 | 0.00 | 90 | 1027.2 |
| 20260509104545 | 56 | 278 | 4.0 | 7.0 | 0.00 | 0.00 | 0.00 | 89 | 1027.1 |
| 20260509103045 | 56 | 305 | 3.0 | 6.0 | 0.00 | 0.00 | 0.00 | 89 | 1026.9 |
| 20260509101545 | 56 | 281 | 2.0 | 5.0 | 0.00 | 0.00 | 0.00 | 89 | 1026.7 |
| 20260509100053 | 56 | 278 | 4.0 | 7.0 | 0.00 | 0.00 | 0.00 | 89 | 1026.7 |
| 20260509094545 | 57 | 292 | 3.0 | 5.0 | 0.00 | 0.00 | 0.00 | 89 | 1026.7 |
| 20260509093045 | 57 | 293 | 3.0 | 5.0 | 0.00 | 0.00 | 0.00 | 91 | 1026.6 |
| 20260509091542 | 57 | 308 | 2.0 | 4.0 | 0.00 | 0.00 | 0.00 | 92 | 1026.7 |
| 20260509090042 | 58 | 278 | 1.0 | 3.0 | 0.00 | 0.00 | 0.00 | 92 | 1026.4 |
| 20260509084547 | 58 | 276 | 1.0 | 3.0 | 0.00 | 0.00 | 0.00 | 91 | 1026.4 |
| 20260509083040 | 58 | 276 | 0.0 | 3.0 | 0.00 | 0.00 | 0.00 | 91 | 1026.2 |
| 20260509081540 | 59 | 266 | 1.0 | 4.0 | 0.00 | 0.00 | 0.00 | 91 | 1026.0 |
| 20260509080058 | 59 | 268 | 1.0 | 4.0 | 0.00 | 0.00 | 0.00 | 91 | 1025.9 |
| 20260509074539 | 60 | 252 | 0.0 | 5.0 | 0.00 | 0.00 | 0.00 | 90 | 1025.8 |
| 20260509073121 | 60 | 238 | 3.0 | 6.0 | 0.00 | 0.00 | 0.00 | 89 | 1025.7 |
| 20260509071537 | 60 | 227 | 1.0 | 3.0 | 0.00 | 0.00 | 0.00 | 86 | 1025.5 |
| 20260509070036 | 62 | 255 | 0.0 | 2.0 | 0.00 | 0.00 | 0.00 | 82 | 1025.3 |
| 20260509064537 | 63 | 245 | 0.0 | 4.0 | 0.00 | 0.00 | 0.00 | 81 | 1025.3 |
| 20260509063036 | 63 | 226 | 1.0 | 5.0 | 0.00 | 0.00 | 0.00 | 80 | 1025.2 |
| 20260509061637 | 63 | 264 | 2.0 | 6.0 | 0.00 | 0.00 | 0.00 | 79 | 1025.2 |
| 20260509060033 | 63 | 247 | 1.0 | 6.0 | 0.00 | 0.00 | 0.00 | 79 | 1025.1 |
| 20260509054537 | 63 | 233 | 3.0 | 9.0 | 0.00 | 0.00 | 0.00 | 79 | 1025.1 |
| 20260509053032 | 62 | 262 | 2.0 | 7.0 | 0.00 | 0.00 | 0.00 | 80 | 1025.1 |
| 20260509051528 | 62 | 233 | 3.0 | 9.0 | 0.00 | 0.00 | 0.00 | 80 | 1025.2 |
| 20260509050035 | 61 | 215 | 4.0 | 9.0 | 0.00 | 0.00 | 0.00 | 81 | 1025.4 |
| 20260509044525 | 61 | 216 | 4.0 | 10.0 | 0.00 | 0.00 | 0.00 | 81 | 1025.4 |
| 20260509043038 | 61 | 198 | 6.0 | 12.0 | 0.00 | 0.00 | 0.00 | 81 | 1025.5 |
| 20260509041524 | 61 | 232 | 6.0 | 13.0 | 0.00 | 0.00 | 0.00 | 81 | 1025.4 |
| 20260509040022 | 61 | 184 | 6.0 | 12.0 | 0.00 | 0.00 | 0.00 | 79 | 1025.5 |
| 20260509034519 | 61 | 227 | 4.0 | 9.0 | 0.00 | 0.00 | 0.00 | 78 | 1025.6 |
| 20260509033021 | 62 | 243 | 2.0 | 9.0 | 0.00 | 0.00 | 0.00 | 77 | 1025.6 |
| 20260509031519 | 62 | 239 | 3.0 | 13.0 | 0.00 | 0.00 | 0.00 | 75 | 1025.6 |
| 20260509030011 | 61 | 248 | 3.0 | 9.0 | 0.00 | 0.00 | 0.00 | 77 | 1025.9 |
| 20260509024511 | 61 | 203 | 2.0 | 10.0 | 0.00 | 0.00 | 0.00 | 75 | 1026.1 |
| 20260509023014 | 61 | 246 | 4.0 | 10.0 | 0.00 | 0.00 | 0.00 | 76 | 1026.4 |
| 20260509021515 | 60 | 261 | 4.0 | 10.0 | 0.00 | 0.00 | 0.00 | 77 | 1026.7 |
| 20260509020001 | 60 | 225 | 5.0 | 12.0 | 0.00 | 0.00 | 0.00 | 78 | 1026.8 |
| 20260509014600 | 59 | 318 | 3.0 | 12.0 | 0.00 | 0.00 | 0.00 | 78 | 1027.0 |
| 20260509013106 | 58 | 270 | 5.0 | 16.0 | 0.00 | 0.00 | 0.00 | 79 | 1027.1 |
| 20260509011558 | 59 | 248 | 3.0 | 13.0 | 0.00 | 0.00 | 0.00 | 80 | 1027.1 |
| 20260509010058 | 59 | 295 | 6.0 | 17.0 | 0.00 | 0.00 | 0.00 | 79 | 1027.1 |
| 20260509004612 | 59 | 313 | 4.0 | 12.0 | 0.00 | 0.00 | 0.00 | 80 | 1027.1 |
| 20260509003053 | 58 | 297 | 7.0 | 15.0 | 0.00 | 0.00 | 0.00 | 81 | 1027.1 |
| 20260509001551 | 57 | 319 | 7.0 | 14.0 | 0.00 | 0.00 | 0.00 | 81 | 1027.1 |
| 20260509000049 | 57 | 281 | 6.0 | 15.0 | 0.00 | 0.00 | 0.00 | 81 | 1027.1 |
| 20260508234549 | 57 | 288 | 6.0 | 13.0 | 0.00 | 0.00 | 0.00 | 81 | 1027.1 |
| 20260508233058 | 57 | 281 | 6.0 | 18.0 | 0.00 | 0.00 | 0.00 | 80 | 1027.1 |
| 20260508231546 | 57 | 302 | 5.0 | 19.0 | 0.00 | 0.00 | 0.00 | 81 | 1027.3 |
| 20260508230054 | 56 | 289 | 3.0 | 16.0 | 0.00 | 0.00 | 0.00 | 82 | 1027.2 |
| 20260508224542 | 56 | 268 | 5.0 | 13.0 | 0.00 | 0.00 | 0.00 | 82 | 1027.1 |
| 20260508223040 | 56 | 265 | 9.0 | 14.0 | 0.00 | 0.00 | 0.00 | 82 | 1027.0 |
| 20260508221540 | 55 | 277 | 5.0 | 11.0 | 0.00 | 0.00 | 0.00 | 83 | 1026.8 |
| 20260508220034 | 55 | 282 | 4.0 | 10.0 | 0.00 | 0.00 | 0.00 | 83 | 1026.8 |
| 20260508214532 | 55 | 254 | 6.0 | 11.0 | 0.00 | 0.00 | 0.00 | 84 | 1026.4 |
| 20260508213030 | 0 | 0.0 | 0.0 | 0.00 | 0.00 | 0.00 | 1026.3 | ||
| 20260508211527 | 0 | 0.0 | 0.0 | 0.00 | 0.00 | 0.00 | 1026.2 | ||
| 20260508210133 | 0 | 0.0 | 0.0 | 0.00 | 0.00 | 0.00 | 1026.0 | ||
| 20260508204515 | 0 | 0.0 | 0.0 | 0.00 | 0.00 | 0.00 | 1025.7 | ||
| 20260508203011 | 0 | 0.0 | 0.0 | 0.00 | 0.00 | 0.00 | 1025.6 | ||
| 20260508201506 | 0 | 0.0 | 0.0 | 0.00 | 0.00 | 0.00 | 1025.5 | ||
| 20260508200002 | 0 | 0.0 | 0.0 | 0.00 | 0.00 | 0.00 | 1025.3 | ||
| 20260508194557 | 0 | 0.0 | 0.0 | 0.00 | 0.00 | 0.00 | 1025.2 | ||
| 20260508193059 | 0 | 0.0 | 0.0 | 0.00 | 0.00 | 0.00 | 1025.1 | ||
| 20260508191551 | 0 | 0.0 | 0.0 | 0.00 | 0.00 | 0.00 | 1024.9 | ||
| 20260508190053 | 0 | 0.0 | 0.0 | 0.00 | 0.00 | 0.00 | 1024.8 | ||
| 20260508184556 | 0 | 0.0 | 0.0 | 0.00 | 0.00 | 0.00 | 1024.7 | ||
| 20260508183036 | 0 | 260 | 3.0 | 8.0 | 0.00 | 0.00 | 0.00 | 97 | 1024.7 |
| 20260508181548 | 53 | 253 | 2.0 | 9.0 | 0.00 | 0.00 | 0.00 | 97 | 1024.6 |
| 20260508180033 | 52 | 271 | 1.0 | 7.0 | 0.00 | 0.00 | 0.00 | 97 | 1024.5 |
| 20260508174530 | 52 | 281 | 1.0 | 9.0 | 0.00 | 0.00 | 0.00 | 98 | 1024.4 |
| 20260508173030 | 52 | 281 | 3.0 | 11.0 | 0.00 | 0.00 | 0.00 | 98 | 1024.3 |
| 20260508171530 | 51 | 324 | 2.0 | 7.0 | 0.00 | 0.00 | 0.00 | 98 | 1024.3 |
| 20260508170035 | 51 | 238 | 2.0 | 7.0 | 0.00 | 0.00 | 0.00 | 98 | 1024.3 |
| 20260508164530 | 51 | 255 | 1.0 | 5.0 | 0.00 | 0.00 | 0.00 | 98 | 1024.2 |
| 20260508163026 | 52 | 210 | 1.0 | 5.0 | 0.00 | 0.00 | 0.00 | 98 | 1024.2 |
| 20260508161525 | 52 | 295 | 0.0 | 6.0 | 0.00 | 0.00 | 0.00 | 98 | 1024.1 |
| 20260508160024 | 52 | 249 | 2.0 | 8.0 | 0.00 | 0.00 | 0.00 | 98 | 1024.1 |
| 20260508154524 | 52 | 269 | 3.0 | 7.0 | 0.00 | 0.00 | 0.00 | 98 | 1024.1 |
| 20260508153023 | 52 | 249 | 2.0 | 7.0 | 0.00 | 0.00 | 0.00 | 97 | 1024.1 |
| 20260508151523 | 53 | 248 | 3.0 | 13.0 | 0.00 | 0.00 | 0.00 | 98 | 1024.2 |